Погода в Хосрехе

Россия / Республика Дагестан     41°59′33″N   47°16′25″E
темп.,
°C
ветер,
м/с
пор.,
м/с
влажн.,
%
обл.,
%
осадки,
мм/ч
давл.,
гПа
погр.,
м
26 октября, вт
вт2600:00−5ссв2297100 2.9 1027198
03:00−7с1298100 4.1 1029177
06:00−9зсз1299100 1.1 1033121
09:00−7ссз2294100 2.3 1033395
12:00−5с227921 0.2 1030543
15:00−6ссв119097 0.3 1030234
18:00−9юз2286100 0.1 103322
21:00−10юз43792 0.1 103620
27 октября, ср
ср2700:00−10юз43640 0.0 103516
03:00−9юз43510 0.0 103414
06:00−8юз43480 0.0 103313
09:00−1юз21650 0.0 102722
12:00+1з01887 0.0 102458
15:00+1зюз11810 0.0 102342
18:00−4юз43540 0.0 102814
21:00−4юз53500 0.0 102815
28 октября, чт
чт2800:00−4юз53500 0.0 102615
03:00−4юз53490 0.0 102514
06:00−4юз43480 0.0 102614
09:00+2юз22660 0.0 102122
12:00+3сз11899 0.0 102073
15:00+1юз11873 0.0 102180
18:00−3юз43670 0.0 102413
21:00−3юз43600 0.0 102415
29 октября, пт
пт2900:00−4юз43540 0.0 102416
03:00−5юз43540 0.0 102516
06:00−5юз43570 0.0 102615
09:000св10640 0.0 1022118
12:00+1св117112 0.0 1021388
15:000св218479 0.0 1023272
18:00−2с119364 0.0 1026118
21:00−2ю0087100 0.0 102755
30 октября, сб
сб3000:00−2св1198100 0.6 1027103
03:00−2св1198100 1.9 102885
06:00−4ю119783 0.3 103015
09:00−1в128921 0.4 1028239
12:00+1всв119093 0.0 1026442
15:000всв119582 0.1 1027219
18:00−1ююз119191 0.0 102924
21:00−2юз32875 0.0 103032